User: anonymous   Login
Location: Theydon Bois
(51.6750°N, 0.1050°E)
Time: 10:25:21
(UTC+00:00)
Language:

Cosmos 2056 Rocket - Orbit

View from above orbital plane
View from above orbital plane
View from above satellite
View from above satellite

Ground track
Ground track

The orbit data is extracted from the following two-line orbital elements,

1 20433U 90004B   18021.33244535 +.00000024 +00000-0 +17030-4 0  9997
2 20433 074.0377 315.6858 0040182 030.2514 116.7711 14.36014298466231
Epoch (UTC): 21 January 2018 07:58:43
Eccentricity: 0.0040182
inclination: 74.0377°
perigee height: 743 km
apogee height: 800 km
right ascension of ascending node: 315.6858°
argument of perigee: 30.2514°
revolutions per day: 14.36014298
mean anomaly at epoch: 116.7711°
orbit number at epoch: 46623

The dashed part of the orbit path shows where the satellite is in the earth's shadow,  

DLR